Regional Weather Roundup
Issued by NWS Jackson, KY

Home | Current Version | Previous Version | Text Only | Print | Product List | Glossary Off
Versions: 1 2 3 4 5 6 7 8 9 10 11 12 13 14 15 16 17 18 19 20 21 22 23 24 25 26 27 28 29 30 31 32 33 34 35 36 37 38 39 40 41 42 43 44 45 46 47 48 49 50

000
ASUS43 KJKL 260911
RWRJKL

EAST KENTUCKY HOURLY WEATHER ROUNDUP
NATIONAL WEATHER SERVICE JACKSON KY
400 AM EST WED NOV 26 2014

NOTE: "FAIR" INDICATES FEW OR NO CLOUDS BELOW 12,000 FEET WITH
NO SIGNIFICANT WEATHER AND/OR OBSTRUCTIONS TO VISIBILITY.

* THESE REPORTS ARE NOT UNDER NWS QUALITY CONTROL AND MAY NOT
  REPORT WEATHER SUCH AS PRECIPITATION AND FOG.

KYZ079-080-083-085-087-088-110-112-115-119-120-261000
...EASTERN KENTUCKY...

CITY           SKY/WX    TMP DP  RH WIND       PRES   REMARKS
JACKSON        CLOUDY    36  28  73 VRB3      30.01F
LONDON         CLOUDY    38  27  64 N5        30.03F WCI  34
SOMERSET*      CLOUDY    36  28  75 N6        30.06F WCI  31
MONTICELLO*    CLOUDY    37  30  76 CALM      30.08F
HARLAN APT*    CLOUDY    41  28  60 CALM      29.99F
HAZARD APT*    PTSUNNY   37  30  75 N3        30.01F
BLACK MTN*       N/A     30  28  93 N5          N/A  WCI  25
PIKEVILLE APT* PTCLDY    37  28  70 N7        30.01F WCI  32
MOREHEAD APT*  CLOUDY    36  27  69 NE5       30.10R WCI  32
$$

KYZ035-036-041-042-044-050-067-078-099-261000
...CENTRAL KENTUCKY...

CITY           SKY/WX    TMP DP  RH WIND       PRES   REMARKS
MT STERLING*   CLOUDY    34  32  93 NE5       30.08F WCI  30
FLEMING/MASON* CLOUDY    32  28  86 NE7       30.10F WCI  26
DANVILLE*      CLOUDY    32  30  93 N5        30.08F WCI  27
RICHMOND*      CLOUDY    34  28  80 CALM      30.06F
LEXINGTON      MOCLDY    32  29  88 N7        30.08F WCI  26
FRANKFORT      PTCLDY    29  26  89 N3        30.08F
$$

KYZ091>093-OHZ055-061-077-WVZ005-015-034-035-042-261000
...SOUTHERN OHIO/WEST VIRGINIA...

CITY           SKY/WX    TMP DP  RH WIND       PRES   REMARKS
COVINGTON      PTCLDY    30  24  78 E7        30.12S WCI  23
COLUMBUS       CLOUDY    28  23  81 N5        30.13F WCI  23
DAYTON         CLOUDY    29  25  85 NE6       30.15S WCI  23
WILMINGTON     PTCLDY    27  23  85 N6        30.12F WCI  20
HUNTINGTON     CLOUDY    36  28  73 N7        30.07S WCI  30
CHARLESTON     CLOUDY    38  29  70 NW5       30.06R WCI  34
PINEVILLE*     CLOUDY    40  36  87 MISG      30.01F
BECKLEY        CLOUDY    38  26  62 NW8       30.00R WCI  32
BLUEFIELD      LGT RAIN  39  32  76 SE3       29.99R
$$

VAZ002-007-008-TNZ017-027-036-066-071-261000
...SOUTHWEST VIRGINIA/EAST TENNESSEE...

CITY           SKY/WX    TMP DP  RH WIND       PRES   REMARKS
WISE*          CLOUDY    37  28  70 N6        29.96F WCI  33
JONESVILLE*    CLOUDY    37  36  93 CALM      29.98F
ABINGDON*      LGT RAIN  45  32  60 SE3       29.95F
BRISTOL        LGT RAIN  42  35  76 E6        29.94F
KNOXVILLE      CLOUDY    44  30  57 NW5       30.01R
OAK RIDGE      CLOUDY    46  30  53 CALM      30.02F
CROSSVILLE     CLOUDY    38  26  62 N3        30.02S
NASHVILLE      CLEAR     33  27  78 NW5       30.12S WCI  29
$$

...KEY TO REMARKS...
VSB - VISIBILITY IN MILES
WCI - WIND CHILL INDEX
HX  - HEAT INDEX

$$



USA.gov is the U.S. government's official web portal to all federal, state and local government web resources and services.